COSMOS 2251 DEB, 34553

Orbit data source: Space-Track

COSMOS 2251 DEB, 34553 is space debris in LEO originally from a launch on Wed, 16 Jun 1993 UTC launched from the Plesetsk Missile And Space Complex (PKMTR). The debris from Iridium 33, an American commercial communications satellite, has been tracked extensively since its accidental collision with the defunct Russian satellite Cosmos 2251 in 2009. This event, occurring at high speed in low Earth orbit (LEO), generated thousands of pieces of space debris, significantly increasing the risk of further collisions. The Iridium 33 debris cloud has impacted space traffic management and orbital debris mitigation strategies, making it a subject of ongoing study in space situational awareness.

Loading next visibility...
Identifier
34553, 1993-036UP
Orbit
LEO
Country
Flag of CISCIS
Related business
Manufacturer
Unknown
Mission
Spacecraft
Bus & Motor
Unknown
Mass
Unknown
Launch date (UTC)
1993-06-16 (33 years ago)
Launch vehicle
Unknown
Launch site
Plesetsk Missile And Space Complex (PKMTR)
Object type
Payload
Rocket body
Debris
Shape & HBR
Unknown shape, 0.1 m
Radar Cross Section
Small (<0.1 m²)

Expand to show TLE details & history
Last TLE update: 14 hours ago

TLE from 14 hours ago
0 COSMOS 2251 DEB
1 34553U 93036UP  26120.91382125  .00004394  00000-0  93356-3 0  9992
2 34553  74.0239 286.7435 0017819 334.2141 177.8505 14.59294939901251
Epoch: 2026-04-30T21:55Z
TLE epoch observation values (Epoch: 2026-04-30T21:55:54.155Z)
Latitude
26.80519°
Longitude
-89.35782°
Altitude
711.027 km
Speed
7.496 km/s
True Right ascension
06h 33m 53s
True Declination
26° 39' 58"
Sunlit
Object was in daylight at epoch
Visualization orbit readout
Latitude
Unknown
Longitude
Unknown
Altitude
Unknown
Speed
Unknown
Apparent Right ascension
Unknown
Apparent Declination
Unknown
Sunlit
N/A
Visualization observer readout
Local Sidereal Time
19:48:40
Azimuth
Unknown
Elevation
Unknown
Doppler factor
Unknown
Orbital elements
Apogee altitude
705.651 km
Perigee altitude
680.451 km
Semi-major axis
7,071.188 km
Eccentricity
0.00178
Inclination
74.0239°
RAAN
286.7435°
Arg. of periapsis
334.2141°
True anomaly
177.85814°
Mean anomaly
177.8505°
Eccentric anomaly
177.85432°
Mean motion
3.6501 °/min
Orbital period
98.63 mins
BSTAR
0.00093356
Loading maneuver chart data...
Computing Atmospheric mass density...

Documentation

Showing up to 5 results
|